TimeCDT,TemperatureF,Dew PointF,Humidity,Sea Level PressureIn,VisibilityMPH,Wind Direction,Wind SpeedMPH,Gust SpeedMPH,PrecipitationIn,Events,Conditions,WindDirDegrees,DateUTC
12:15 AM,76.3,76.1,99,30.04,10.0,NE,3.5,-,N/A,,Clear,40,2013-09-17 05:15:00
12:35 AM,76.6,76.1,98,30.03,10.0,ENE,3.5,-,N/A,,Clear,60,2013-09-17 05:35:00
12:55 AM,76.1,75.7,99,30.03,10.0,Calm,Calm,-,N/A,,Clear,0,2013-09-17 05:55:00
1:15 AM,74.7,74.5,99,30.03,10.0,Calm,Calm,-,N/A,,Clear,0,2013-09-17 06:15:00
1:35 AM,73.6,73.6,100,30.03,7.0,Calm,Calm,-,N/A,,Clear,0,2013-09-17 06:35:00
1:55 AM,74.5,74.5,100,30.03,7.0,NE,3.5,-,N/A,,Clear,40,2013-09-17 06:55:00
2:15 AM,74.5,74.5,100,30.03,7.0,Calm,Calm,-,N/A,,Clear,0,2013-09-17 07:15:00
2:35 AM,75.4,75.4,100,30.02,10.0,Calm,Calm,-,N/A,,Clear,0,2013-09-17 07:35:00
2:55 AM,73.8,73.8,100,30.02,7.0,NNE,3.5,-,N/A,,Clear,20,2013-09-17 07:55:00
3:15 AM,73.2,73.2,100,30.02,7.0,Calm,Calm,-,N/A,,Clear,0,2013-09-17 08:15:00
3:35 AM,74.5,74.5,100,30.01,5.0,Calm,Calm,-,N/A,,Clear,0,2013-09-17 08:35:00
3:55 AM,73.6,73.6,100,30.01,7.0,Calm,Calm,-,N/A,,Clear,0,2013-09-17 08:55:00
4:15 AM,72.5,72.5,100,30.01,1.0,North,3.5,-,N/A,,Mist,10,2013-09-17 09:15:00
4:35 AM,72.5,72.5,100,30.02,1.5,Calm,Calm,-,N/A,,Mist,0,2013-09-17 09:35:00
4:55 AM,73.0,73.0,100,30.02,1.2,NNE,3.5,-,N/A,,Mist,30,2013-09-17 09:55:00
5:15 AM,74.5,74.5,100,30.02,7.0,Calm,Calm,-,N/A,,Clear,0,2013-09-17 10:15:00
5:35 AM,74.5,74.5,100,30.02,5.0,NE,3.5,-,N/A,,Clear,50,2013-09-17 10:35:00
5:55 AM,74.3,74.3,100,30.02,5.0,NE,3.5,-,N/A,,Clear,40,2013-09-17 10:55:00
6:15 AM,74.3,74.3,100,30.03,5.0,NNE,3.5,-,N/A,,Clear,30,2013-09-17 11:15:00
6:35 AM,74.3,74.3,100,30.03,5.0,Calm,Calm,-,N/A,,Clear,0,2013-09-17 11:35:00
6:55 AM,73.6,73.6,100,30.03,3.0,ENE,3.5,-,N/A,,Clear,60,2013-09-17 11:55:00
7:15 AM,73.8,73.8,100,30.04,4.0,Calm,Calm,-,N/A,,Clear,0,2013-09-17 12:15:00
7:35 AM,74.5,74.5,100,30.05,5.0,Calm,Calm,-,N/A,,Clear,0,2013-09-17 12:35:00
7:55 AM,75.7,75.7,100,30.05,10.0,Calm,Calm,-,N/A,,Clear,0,2013-09-17 12:55:00
8:15 AM,77.0,77.0,100,30.05,10.0,East,4.6,-,N/A,,Clear,90,2013-09-17 13:15:00
8:35 AM,78.4,77.9,98,30.06,10.0,NE,4.6,-,N/A,,Clear,40,2013-09-17 13:35:00
8:55 AM,80.4,75.9,86,30.07,10.0,NE,4.6,-,N/A,,Clear,50,2013-09-17 13:55:00
9:15 AM,82.9,74.8,76,30.07,10.0,ENE,3.5,-,N/A,,Clear,60,2013-09-17 14:15:00
9:35 AM,84.4,73.0,69,30.07,10.0,ENE,5.8,-,N/A,,Clear,70,2013-09-17 14:35:00
9:55 AM,86.2,68.5,55,30.08,10.0,ENE,6.9,-,N/A,,Clear,60,2013-09-17 14:55:00
10:15 AM,87.8,67.1,50,30.08,10.0,ENE,8.1,-,N/A,,Clear,60,2013-09-17 15:15:00
10:35 AM,88.5,66.4,48,30.08,10.0,East,5.8,-,N/A,,Clear,80,2013-09-17 15:35:00
10:55 AM,88.7,66.7,48,30.08,10.0,ENE,6.9,-,N/A,,Clear,60,2013-09-17 15:55:00
11:15 AM,90.7,66.2,44,30.07,10.0,East,6.9,-,N/A,,Clear,80,2013-09-17 16:15:00
11:35 AM,91.0,65.3,42,30.07,10.0,ENE,6.9,-,N/A,,Clear,60,2013-09-17 16:35:00
11:55 AM,91.8,64.6,40,30.06,10.0,East,6.9,-,N/A,,Clear,90,2013-09-17 16:55:00
12:15 PM,92.7,63.3,38,30.05,10.0,ENE,9.2,-,N/A,,Clear,60,2013-09-17 17:15:00
12:35 PM,93.4,63.5,37,30.05,10.0,East,6.9,-,N/A,,Scattered Clouds,80,2013-09-17 17:35:00
12:55 PM,93.6,63.1,36,30.04,10.0,East,6.9,-,N/A,,Scattered Clouds,90,2013-09-17 17:55:00
1:15 PM,93.2,62.2,36,30.03,10.0,East,6.9,-,N/A,,Scattered Clouds,90,2013-09-17 18:15:00
1:35 PM,94.1,61.7,34,30.02,10.0,East,6.9,-,N/A,,Clear,100,2013-09-17 18:35:00
1:55 PM,95.2,60.4,31,30.02,10.0,East,8.1,17.3,N/A,,Clear,90,2013-09-17 18:55:00
2:15 PM,94.6,61.9,34,30.00,10.0,NE,8.1,-,N/A,,Scattered Clouds,50,2013-09-17 19:15:00
2:35 PM,94.6,59.9,31,30.00,10.0,East,8.1,-,N/A,,Clear,80,2013-09-17 19:35:00
2:55 PM,94.5,60.3,32,29.99,10.0,ENE,8.1,-,N/A,,Clear,60,2013-09-17 19:55:00
3:15 PM,95.2,60.3,31,29.98,10.0,East,6.9,-,N/A,,Scattered Clouds,100,2013-09-17 20:15:00
3:35 PM,95.0,60.1,31,29.97,10.0,ENE,4.6,-,N/A,,Scattered Clouds,60,2013-09-17 20:35:00
3:55 PM,93.4,60.4,33,29.97,10.0,East,6.9,-,N/A,,Scattered Clouds,90,2013-09-17 20:55:00
4:15 PM,94.8,61.5,33,29.96,10.0,East,9.2,-,N/A,,Scattered Clouds,100,2013-09-17 21:15:00
4:35 PM,94.8,60.8,32,29.95,10.0,East,5.8,-,N/A,,Scattered Clouds,100,2013-09-17 21:35:00
4:55 PM,93.4,59.7,32,29.95,10.0,ENE,8.1,-,N/A,,Scattered Clouds,70,2013-09-17 21:55:00
5:15 PM,94.1,59.2,31,29.95,10.0,East,5.8,-,N/A,,Clear,100,2013-09-17 22:15:00
5:35 PM,93.7,60.1,32,29.95,10.0,ESE,8.1,-,N/A,,Scattered Clouds,110,2013-09-17 22:35:00
5:55 PM,90.7,62.6,39,29.95,10.0,ENE,3.5,-,N/A,,Mostly Cloudy,70,2013-09-17 22:55:00
6:15 PM,89.6,63.0,41,29.96,10.0,East,4.6,-,N/A,,Scattered Clouds,90,2013-09-17 23:15:00
6:35 PM,88.0,67.5,50,29.96,10.0,SE,3.5,-,N/A,,Clear,140,2013-09-17 23:35:00
6:55 PM,85.3,65.3,51,29.98,10.0,ESE,13.8,19.6,N/A,,Mostly Cloudy,110,2013-09-17 23:55:00
7:15 PM,80.4,67.8,65,29.98,10.0,ESE,6.9,-,N/A,,Overcast,120,2013-09-18 00:15:00
7:35 PM,79.9,64.0,58,29.97,10.0,ESE,3.5,-,N/A,,Overcast,110,2013-09-18 00:35:00
7:55 PM,79.7,65.5,62,29.97,10.0,ESE,3.5,-,N/A,,Overcast,110,2013-09-18 00:55:00
8:15 PM,79.7,67.1,65,29.98,10.0,Calm,Calm,-,N/A,,Overcast,0,2013-09-18 01:15:00
8:35 PM,79.3,68.5,69,29.98,10.0,Calm,Calm,-,N/A,,Overcast,0,2013-09-18 01:35:00
8:55 PM,79.3,70.2,73,29.99,10.0,Calm,Calm,-,N/A,,Overcast,0,2013-09-18 01:55:00
9:15 PM,79.2,70.9,76,29.99,10.0,Calm,Calm,-,N/A,,Mostly Cloudy,0,2013-09-18 02:15:00
9:35 PM,79.2,71.6,78,30.00,10.0,Calm,Calm,-,N/A,,Scattered Clouds,0,2013-09-18 02:35:00
9:55 PM,78.4,72.5,82,30.00,10.0,Calm,Calm,-,N/A,,Clear,0,2013-09-18 02:55:00
10:15 PM,78.1,73.6,86,30.00,10.0,Calm,Calm,-,N/A,,Clear,0,2013-09-18 03:15:00
10:35 PM,77.9,73.2,85,30.00,10.0,NNE,3.5,-,N/A,,Clear,20,2013-09-18 03:35:00
10:55 PM,77.0,74.5,92,30.00,10.0,NNE,3.5,-,N/A,,Clear,30,2013-09-18 03:55:00
11:15 PM,77.2,73.6,89,30.00,10.0,Calm,Calm,-,N/A,,Clear,0,2013-09-18 04:15:00
11:35 PM,77.4,73.0,86,30.00,10.0,Calm,Calm,-,N/A,,Clear,0,2013-09-18 04:35:00
11:55 PM,77.0,73.4,89,30.00,10.0,East,3.5,-,N/A,,Clear,90,2013-09-18 04:55:00